Stündliche Wetter Otreba

Heute, 15 April, Donnerstag

Zeit Temperatur Niederschläge Wind Luftdruck Luftfeuchtigkeit
00:00 -1°C° 0.2 mm 6 m/S 757 mmHg 93%
01:00 -1°C° 0.2 mm 6 m/S 756 mmHg 96%
02:00 -1°C° 0.3 mm 6 m/S 756 mmHg 96%
03:00 -1°C° 0.3 mm 6 m/S 756 mmHg 96%
04:00 -1°C° 0.3 mm 6 m/S 756 mmHg 96%
05:00 -1°C° 0.7 mm 6 m/S 756 mmHg 96%
06:00 -1°C° 0.7 mm 6 m/S 756 mmHg 96%
07:00 -1°C° 0.7 mm 6 m/S 756 mmHg 97%
08:00 -1°C° 0.5 mm 6 m/S 755 mmHg 97%
09:00 -1°C° 0.5 mm 6 m/S 755 mmHg 97%
10:00 -1°C° 0.5 mm 6 m/S 755 mmHg 97%
11:00 -1°C° 0.9 mm 6 m/S 755 mmHg 97%
12:00 -1°C° 0.9 mm 6 m/S 755 mmHg 97%
13:00 +1°C° 0.9 mm 6 m/S 755 mmHg 97%
14:00 +1°C° 0.7 mm 6 m/S 755 mmHg 96%
15:00 +1°C° 0.7 mm 6 m/S 755 mmHg 95%
16:00 +2°C° 0.7 mm 6 m/S 755 mmHg 94%
17:00 +2°C° 0.2 mm 5 m/S 755 mmHg 93%
18:00 +2°C° 0.2 mm 5 m/S 755 mmHg 92%
19:00 +3°C° 0.2 mm 5 m/S 755 mmHg 91%
20:00 +4°C° 0 mm 4 m/S 755 mmHg 91%
21:00 +3°C° 0 mm 4 m/S 755 mmHg 91%
22:00 +3°C° 0 mm 3 m/S 755 mmHg 91%
23:00 +3°C° 0.1 mm 4 m/S 755 mmHg 90%

Morgen, 16 April, Freitag

Zeit Temperatur Niederschläge Wind Luftdruck Luftfeuchtigkeit
00:00 +3°C° 0.1 mm 4 m/S 755 mmHg 90%
01:00 +1°C° 0.1 mm 4 m/S 755 mmHg 89%
02:00 +1°C° 0.1 mm 4 m/S 755 mmHg 90%
03:00 +1°C° 0.1 mm 4 m/S 754 mmHg 91%
04:00 +1°C° 0.1 mm 4 m/S 754 mmHg 93%
05:00 +1°C° 0.1 mm 4 m/S 754 mmHg 93%
06:00 +1°C° 0.1 mm 4 m/S 754 mmHg 94%
07:00 +1°C° 0.1 mm 4 m/S 754 mmHg 94%
08:00 +1°C° 0 mm 5 m/S 754 mmHg 93%
09:00 +2°C° 0 mm 5 m/S 755 mmHg 93%
10:00 +2°C° 0 mm 5 m/S 755 mmHg 92%
11:00 +2°C° 0.1 mm 5 m/S 755 mmHg 92%
12:00 +3°C° 0.1 mm 4 m/S 755 mmHg 93%
13:00 +3°C° 0.1 mm 4 m/S 755 mmHg 93%
14:00 +3°C° 0 mm 4 m/S 755 mmHg 94%
15:00 +3°C° 0 mm 4 m/S 755 mmHg 94%
16:00 +3°C° 0 mm 4 m/S 755 mmHg 94%
17:00 +3°C° 0 mm 3 m/S 755 mmHg 95%
18:00 +3°C° 0 mm 3 m/S 755 mmHg 96%
19:00 +3°C° 0 mm 3 m/S 755 mmHg 97%
20:00 +3°C° 0 mm 3 m/S 755 mmHg 97%
21:00 +3°C° 0 mm 3 m/S 755 mmHg 98%
22:00 +3°C° 0 mm 3 m/S 755 mmHg 98%
23:00 +4°C° 0 mm 3 m/S 755 mmHg 98%

übermorgen, 17 April, Samstag

Zeit Temperatur Niederschläge Wind Luftdruck Luftfeuchtigkeit
00:00 +4°C° 0 mm 3 m/S 755 mmHg 98%
01:00 +4°C° 0 mm 3 m/S 755 mmHg 98%
02:00 +4°C° 0 mm 3 m/S 755 mmHg 98%
03:00 +4°C° 0 mm 3 m/S 755 mmHg 98%
04:00 +4°C° 0 mm 3 m/S 755 mmHg 98%
05:00 +5°C° 0.1 mm 3 m/S 755 mmHg 98%
06:00 +5°C° 0.1 mm 3 m/S 755 mmHg 97%
07:00 +5°C° 0.1 mm 3 m/S 755 mmHg 97%
08:00 +7°C° 0.1 mm 3 m/S 755 mmHg 95%
09:00 +8°C° 0.1 mm 3 m/S 755 mmHg 93%
10:00 +9°C° 0.1 mm 3 m/S 755 mmHg 90%
11:00 +9°C° 0.1 mm 3 m/S 755 mmHg 85%
12:00 +10°C° 0.1 mm 4 m/S 755 mmHg 79%
13:00 +11°C° 0.1 mm 4 m/S 755 mmHg 73%
14:00 +11°C° 0.2 mm 4 m/S 755 mmHg 74%
15:00 +11°C° 0.2 mm 4 m/S 755 mmHg 74%
16:00 +11°C° 0.2 mm 4 m/S 755 mmHg 74%
17:00 +10°C° 0.1 mm 3 m/S 756 mmHg 79%
18:00 +9°C° 0.1 mm 3 m/S 756 mmHg 84%
19:00 +8°C° 0.1 mm 2 m/S 756 mmHg 89%
20:00 +7°C° 0 mm 2 m/S 756 mmHg 90%
21:00 +7°C° 0 mm 2 m/S 756 mmHg 91%
22:00 +6°C° 0 mm 2 m/S 756 mmHg 92%
23:00 +6°C° 0 mm 2 m/S 756 mmHg 92%

18 April, Sonntag

Zeit Temperatur Niederschläge Wind Luftdruck Luftfeuchtigkeit
00:00 +7°C° 0 mm 1 m/S 756 mmHg 92%
01:00 +7°C° 0 mm 1 m/S 756 mmHg 92%
02:00 +7°C° 0.2 mm 1 m/S 756 mmHg 93%
03:00 +7°C° 0.2 mm 1 m/S 756 mmHg 93%
04:00 +7°C° 0.2 mm 2 m/S 756 mmHg 93%
05:00 +7°C° 0 mm 2 m/S 756 mmHg 92%
06:00 +7°C° 0 mm 2 m/S 756 mmHg 91%
07:00 +7°C° 0 mm 2 m/S 756 mmHg 90%
08:00 +8°C° 0 mm 2 m/S 756 mmHg 82%
09:00 +9°C° 0 mm 3 m/S 756 mmHg 75%
10:00 +10°C° 0 mm 3 m/S 756 mmHg 68%
11:00 +11°C° 0 mm 3 m/S 756 mmHg 65%
12:00 +11°C° 0 mm 3 m/S 756 mmHg 63%
13:00 +11°C° 0 mm 3 m/S 756 mmHg 60%
14:00 +12°C° 0 mm 3 m/S 756 mmHg 59%
15:00 +12°C° 0 mm 3 m/S 756 mmHg 58%
16:00 +12°C° 0 mm 3 m/S 755 mmHg 57%
17:00 +11°C° 0 mm 3 m/S 756 mmHg 63%
18:00 +10°C° 0 mm 3 m/S 756 mmHg 69%
19:00 +8°C° 0 mm 3 m/S 756 mmHg 75%
20:00 +8°C° 0 mm 2 m/S 756 mmHg 76%
21:00 +8°C° 0 mm 2 m/S 756 mmHg 76%
22:00 +8°C° 0 mm 2 m/S 756 mmHg 77%
23:00 +8°C° 0 mm 2 m/S 756 mmHg 77%

19 April, Montag

Zeit Temperatur Niederschläge Wind Luftdruck Luftfeuchtigkeit
00:00 +8°C° 0 mm 2 m/S 756 mmHg 76%
01:00 +7°C° 0 mm 2 m/S 756 mmHg 76%
02:00 +7°C° 0 mm 2 m/S 756 mmHg 76%
03:00 +7°C° 0 mm 2 m/S 755 mmHg 76%
04:00 +7°C° 0 mm 2 m/S 755 mmHg 76%
05:00 +8°C° 0 mm 3 m/S 755 mmHg 75%
06:00 +8°C° 0 mm 3 m/S 755 mmHg 74%
07:00 +9°C° 0 mm 3 m/S 755 mmHg 73%
08:00 +10°C° 0 mm 3 m/S 755 mmHg 68%
09:00 +11°C° 0 mm 4 m/S 754 mmHg 64%
10:00 +12°C° 0 mm 4 m/S 754 mmHg 60%
11:00 +12°C° 0.1 mm 5 m/S 754 mmHg 60%
12:00 +13°C° 0.1 mm 5 m/S 753 mmHg 60%
13:00 +13°C° 0.1 mm 5 m/S 753 mmHg 60%
14:00 +12°C° 0.1 mm 5 m/S 753 mmHg 65%
15:00 +12°C° 0.1 mm 4 m/S 753 mmHg 69%
16:00 +11°C° 0.1 mm 3 m/S 752 mmHg 74%
17:00 +11°C° 0.2 mm 3 m/S 752 mmHg 77%
18:00 +10°C° 0.2 mm 2 m/S 752 mmHg 81%
19:00 +10°C° 0.2 mm 2 m/S 751 mmHg 85%
20:00 +9°C° 0.1 mm 2 m/S 751 mmHg 87%
21:00 +9°C° 0.1 mm 3 m/S 751 mmHg 89%
22:00 +9°C° 0.1 mm 3 m/S 750 mmHg 91%
23:00 +9°C° 0 mm 3 m/S 750 mmHg 92%

20 April, Dienstag

Zeit Temperatur Niederschläge Wind Luftdruck Luftfeuchtigkeit
00:00 +8°C° 0 mm 3 m/S 750 mmHg 93%
01:00 +8°C° 0 mm 3 m/S 749 mmHg 94%
02:00 +8°C° 0 mm 3 m/S 749 mmHg 95%
03:00 +8°C° 0 mm 3 m/S 749 mmHg 95%
04:00 +7°C° 0 mm 3 m/S 748 mmHg 96%
05:00 +7°C° 0.1 mm 4 m/S 748 mmHg 94%
06:00 +7°C° 0.1 mm 4 m/S 748 mmHg 93%
07:00 +7°C° 0.1 mm 4 m/S 748 mmHg 92%
08:00 +7°C° 0 mm 4 m/S 747 mmHg 91%
09:00 +8°C° 0 mm 4 m/S 747 mmHg 90%
10:00 +8°C° 0 mm 4 m/S 747 mmHg 89%
11:00 +8°C° 0 mm 4 m/S 746 mmHg 89%
12:00 +8°C° 0 mm 5 m/S 746 mmHg 89%
13:00 +8°C° 0 mm 5 m/S 746 mmHg 89%
14:00 +8°C° 0.1 mm 5 m/S 746 mmHg 89%
15:00 +8°C° 0.1 mm 4 m/S 745 mmHg 89%
16:00 +7°C° 0.1 mm 4 m/S 745 mmHg 88%
17:00 +7°C° 0 mm 5 m/S 745 mmHg 89%
18:00 +7°C° 0 mm 5 m/S 745 mmHg 90%
19:00 +7°C° 0 mm 5 m/S 745 mmHg 91%
20:00 +6°C° 0 mm 4 m/S 744 mmHg 92%
21:00 +6°C° 0 mm 4 m/S 744 mmHg 94%
22:00 +6°C° 0 mm 4 m/S 744 mmHg 95%
23:00 +6°C° 0 mm 4 m/S 744 mmHg 95%
Mehr zeigen

Wir brauchen deine Erlaubnis

Meteoprog und unser Service Anbieter werden persönliche Daten aufbewahren, so wie Cookies, Geräte Bezeichnung oder ähnliche Technologien von deinem Gerät und Prozess, so wie Persönliche Daten Inhalte und Werbungen, genauso wie social Media und den Verkehr zu analysieren.

  • Aufbewahrung und/oder Zugang zu deiner Geräte Informationen.

    Cookies, Geräte Bezeichnung oder andere Informationen, können aufbewahrt oder Zugang zu deinem Gerät erhalten, für den Grund, der oben angegeben wird.

  • Personalisierte Werbung und Inhalte, Messungen, Einblick in das Publikum und Produkt Entwicklung.

    Werbungen und Inhalte können personalisiert werden, basierend auf ein Profil. Mehr Daten können besser personalisierte Werbungen und Inhalte hinzufügen. Werbung und Inhalte können gezeigt und gemessen werden. Einblicke über das Publikum, welche die Werbung gesehen haben und den Inhalt, können abgeleitet werden. So wie Daten können genutzt werden, um es zu verbessern oder die Benutzer Erfahrung zu verbessern das System und die Software.

Wenn du “Ich stimme zu” klickst, erlaubst du uns, die Cookies zu benutzen die Geräte Bezeichnung, den Web oder ähnliche Technologien zu benutzen. Deine Settings, können in deinem Gerät bei deinem Browser geändert werden.

Für den bestimmten Zweck, berechtigten Interessen beruhen darauf, mehr als auf den Inhalt. Du kannst mehr darüber in unseren Privaten und Cookie Politik lesen.